Year,Month,Day,Hour,Minute,Value (Times are PST for temperature in C)
2011,07,03,00,00,15.00
2011,07,03,00,01,15.00
2011,07,03,00,02,15.00
2011,07,03,00,03,15.00
2011,07,03,00,04,15.00
2011,07,03,00,05,15.00
2011,07,03,00,06,15.00
2011,07,03,00,07,15.00
2011,07,03,00,08,15.00
2011,07,03,00,09,15.00
2011,07,03,00,10,15.00
2011,07,03,00,11,15.00
2011,07,03,00,12,15.00
2011,07,03,00,18,14.90
2011,07,03,00,19,14.90
2011,07,03,00,20,14.90
2011,07,03,00,21,15.00
2011,07,03,00,22,15.00
2011,07,03,00,23,15.00
2011,07,03,00,24,15.00
2011,07,03,00,25,15.00
2011,07,03,00,26,15.00
2011,07,03,00,27,15.00
2011,07,03,00,28,15.00
2011,07,03,00,29,15.00
2011,07,03,00,30,15.00
2011,07,03,00,31,15.00
2011,07,03,00,32,15.00
2011,07,03,00,33,15.00
2011,07,03,00,34,15.00
2011,07,03,00,35,15.00
2011,07,03,00,36,15.00
2011,07,03,00,37,15.00
2011,07,03,00,38,15.00
2011,07,03,00,39,15.00
2011,07,03,00,40,15.00
2011,07,03,00,41,15.00
2011,07,03,00,42,15.00
2011,07,03,00,43,15.00
2011,07,03,00,44,15.00
2011,07,03,00,45,15.00
2011,07,03,00,46,15.00
2011,07,03,00,47,15.00
2011,07,03,00,48,15.00
2011,07,03,00,49,15.00
2011,07,03,00,50,15.00
2011,07,03,00,51,15.00
2011,07,03,00,52,15.00
2011,07,03,00,53,15.00
2011,07,03,00,54,15.00
2011,07,03,00,55,15.00
2011,07,03,00,56,15.00
2011,07,03,00,57,15.00
2011,07,03,00,58,15.00
2011,07,03,00,59,15.00
2011,07,03,01,00,15.00
2011,07,03,01,01,15.00
2011,07,03,01,02,15.00
2011,07,03,01,03,15.00
2011,07,03,01,04,15.00
2011,07,03,01,05,15.00
2011,07,03,01,06,15.00
2011,07,03,01,07,15.00
2011,07,03,01,08,15.00
2011,07,03,01,09,15.00
2011,07,03,01,10,15.00
2011,07,03,01,11,15.00
2011,07,03,01,12,15.00
2011,07,03,01,13,15.00
2011,07,03,01,14,15.00
2011,07,03,01,15,15.00
2011,07,03,01,16,15.00
2011,07,03,01,17,15.00
2011,07,03,01,18,15.00
2011,07,03,01,19,15.00
2011,07,03,01,20,15.00
2011,07,03,01,21,15.00
2011,07,03,01,22,15.00
2011,07,03,01,23,15.10
2011,07,03,01,24,15.20
2011,07,03,01,25,15.30
2011,07,03,01,26,15.40
2011,07,03,01,27,15.50
2011,07,03,01,28,15.50
2011,07,03,01,29,15.60
2011,07,03,01,30,15.60
2011,07,03,01,31,15.60
2011,07,03,01,32,15.60
2011,07,03,01,33,15.60
2011,07,03,01,34,15.60
2011,07,03,01,35,15.60
2011,07,03,01,36,15.60
2011,07,03,01,37,15.60
2011,07,03,01,38,15.60
2011,07,03,01,39,15.50
2011,07,03,01,40,15.60
2011,07,03,01,41,15.60
2011,07,03,01,42,15.60
2011,07,03,01,43,15.60
2011,07,03,01,44,15.60
2011,07,03,01,45,15.60
2011,07,03,01,46,15.60
2011,07,03,01,47,15.60
2011,07,03,01,48,15.60
2011,07,03,01,49,15.60
2011,07,03,01,50,15.60
2011,07,03,01,51,15.50
2011,07,03,01,52,15.50
2011,07,03,01,53,15.60
2011,07,03,01,54,15.60
2011,07,03,01,55,15.60
2011,07,03,01,56,15.60
2011,07,03,01,57,15.70
2011,07,03,01,58,15.70
2011,07,03,01,59,15.70
2011,07,03,02,00,15.80
2011,07,03,02,01,15.80
2011,07,03,02,02,15.80
2011,07,03,02,03,15.80
2011,07,03,02,04,15.80
2011,07,03,02,05,15.90
2011,07,03,02,06,15.90
2011,07,03,02,07,15.90
2011,07,03,02,08,15.90
2011,07,03,02,09,15.90
2011,07,03,02,10,15.90
2011,07,03,02,11,15.90
2011,07,03,02,12,15.90
2011,07,03,02,13,15.90
2011,07,03,02,14,15.90
2011,07,03,02,15,15.90
2011,07,03,02,16,15.90
2011,07,03,02,17,15.90
2011,07,03,02,18,15.90
2011,07,03,02,19,15.80
2011,07,03,02,20,15.80
2011,07,03,02,21,15.80
2011,07,03,02,22,15.80
2011,07,03,02,23,15.80
2011,07,03,02,24,15.90
2011,07,03,02,25,15.90
2011,07,03,02,26,15.90
2011,07,03,02,27,15.90
2011,07,03,02,28,15.90
2011,07,03,02,29,15.90
2011,07,03,02,30,15.90
2011,07,03,02,31,15.90
2011,07,03,02,32,15.90
2011,07,03,02,33,15.90
2011,07,03,02,34,15.90
2011,07,03,02,35,15.90
2011,07,03,02,36,15.90
2011,07,03,02,37,15.90
2011,07,03,02,38,15.90
2011,07,03,02,39,15.90
2011,07,03,02,40,15.90
2011,07,03,02,41,15.90
2011,07,03,02,42,15.90
2011,07,03,02,43,15.90
2011,07,03,02,44,15.90
2011,07,03,02,45,15.90
2011,07,03,02,46,15.90
2011,07,03,02,47,16.00
2011,07,03,02,48,16.00
2011,07,03,02,49,15.90
2011,07,03,02,50,15.90
2011,07,03,02,51,15.90
2011,07,03,02,52,15.90
2011,07,03,02,53,15.90
2011,07,03,02,54,15.90
2011,07,03,02,55,15.90
2011,07,03,02,56,15.90
2011,07,03,02,57,15.90
2011,07,03,02,58,15.90
2011,07,03,02,59,15.90
2011,07,03,03,00,15.90
2011,07,03,03,01,15.90
2011,07,03,03,02,15.90
2011,07,03,03,03,15.90
2011,07,03,03,04,15.90
2011,07,03,03,05,15.90
2011,07,03,03,06,15.80
2011,07,03,03,07,15.80
2011,07,03,03,08,15.80
2011,07,03,03,09,15.80
2011,07,03,03,10,15.80
2011,07,03,03,11,15.80
2011,07,03,03,12,15.80
2011,07,03,03,13,15.80
2011,07,03,03,14,15.70
2011,07,03,03,15,15.70
2011,07,03,03,16,15.70
2011,07,03,03,17,15.70
2011,07,03,03,18,15.70
2011,07,03,03,19,15.70
2011,07,03,03,20,15.70
2011,07,03,03,21,15.70
2011,07,03,03,22,15.70
2011,07,03,03,23,15.70
2011,07,03,03,24,15.70
2011,07,03,03,25,15.70
2011,07,03,03,26,15.70
2011,07,03,03,27,15.70
2011,07,03,03,28,15.70
2011,07,03,03,29,15.70
2011,07,03,03,30,15.70
2011,07,03,03,31,15.70
2011,07,03,03,32,15.70
2011,07,03,03,33,15.70
2011,07,03,03,34,15.70
2011,07,03,03,35,15.70
2011,07,03,03,36,15.70
2011,07,03,03,37,15.70
2011,07,03,03,38,15.70
2011,07,03,03,39,15.70
2011,07,03,03,40,15.60
2011,07,03,03,41,15.60
2011,07,03,03,42,15.60
2011,07,03,03,43,15.60
2011,07,03,03,44,15.60
2011,07,03,03,45,15.60
2011,07,03,03,46,15.60
2011,07,03,03,47,15.60
2011,07,03,03,48,15.60
2011,07,03,03,49,15.60
2011,07,03,03,50,15.60
2011,07,03,03,51,15.60
2011,07,03,03,52,15.60
2011,07,03,03,53,15.60
2011,07,03,03,54,15.60
2011,07,03,03,55,15.60
2011,07,03,03,56,15.60
2011,07,03,03,57,15.60
2011,07,03,03,58,15.60
2011,07,03,03,59,15.60
2011,07,03,04,00,15.60
2011,07,03,04,01,15.60
2011,07,03,04,02,15.60
2011,07,03,04,03,15.60
2011,07,03,04,04,15.60
2011,07,03,04,05,15.60
2011,07,03,04,06,15.60
2011,07,03,04,07,15.60
2011,07,03,04,08,15.60
2011,07,03,04,09,15.60
2011,07,03,04,10,15.60
2011,07,03,04,11,15.60
2011,07,03,04,12,15.60
2011,07,03,04,13,15.60
2011,07,03,04,14,15.60
2011,07,03,04,15,15.50
2011,07,03,04,16,15.50
2011,07,03,04,17,15.50
2011,07,03,04,18,15.50
2011,07,03,04,19,15.40
2011,07,03,04,20,15.40
2011,07,03,04,21,15.40
2011,07,03,04,22,15.40
2011,07,03,04,23,15.40
2011,07,03,04,24,15.30
2011,07,03,04,25,15.30
2011,07,03,04,26,15.30
2011,07,03,04,27,15.30
2011,07,03,04,28,15.30
2011,07,03,04,29,15.30
2011,07,03,04,30,15.20
2011,07,03,04,31,15.20
2011,07,03,04,32,15.20
2011,07,03,04,33,15.20
2011,07,03,04,34,15.20
2011,07,03,04,35,15.20
2011,07,03,04,36,15.20
2011,07,03,04,37,15.20
2011,07,03,04,38,15.20
2011,07,03,04,39,15.20
2011,07,03,04,40,15.20
2011,07,03,04,41,15.20
2011,07,03,04,42,15.10
2011,07,03,04,43,15.10
2011,07,03,04,44,15.10
2011,07,03,04,45,15.10
2011,07,03,04,46,15.10
2011,07,03,04,47,15.00
2011,07,03,04,48,15.00
2011,07,03,04,49,15.00
2011,07,03,04,50,15.00
2011,07,03,04,51,15.00
2011,07,03,04,52,15.00
2011,07,03,04,53,15.00
2011,07,03,04,54,15.00
2011,07,03,04,55,15.00
2011,07,03,04,56,15.00
2011,07,03,04,57,15.00
2011,07,03,04,58,15.00
2011,07,03,04,59,15.00
2011,07,03,05,00,15.00
2011,07,03,05,01,15.00
2011,07,03,05,02,15.00
2011,07,03,05,03,14.90
2011,07,03,05,04,14.90
2011,07,03,05,05,14.80
2011,07,03,05,06,14.80
2011,07,03,05,07,14.80
2011,07,03,05,08,14.80
2011,07,03,05,09,14.80
2011,07,03,05,10,14.80
2011,07,03,05,11,14.70
2011,07,03,05,12,14.70
2011,07,03,05,13,14.70
2011,07,03,05,14,14.70
2011,07,03,05,15,14.70
2011,07,03,05,16,14.70
2011,07,03,05,17,14.70
2011,07,03,05,18,14.70
2011,07,03,05,19,14.70
2011,07,03,05,20,14.70
2011,07,03,05,21,14.70
2011,07,03,05,22,14.70
2011,07,03,05,23,14.60
2011,07,03,05,24,14.60
2011,07,03,05,25,14.60
2011,07,03,05,26,14.60
2011,07,03,05,27,14.60
2011,07,03,05,28,14.60
2011,07,03,05,29,14.60
2011,07,03,05,30,14.50
2011,07,03,05,31,14.50
2011,07,03,05,32,14.50
2011,07,03,05,33,14.40
2011,07,03,05,34,14.40
2011,07,03,05,35,14.40
2011,07,03,05,36,14.30
2011,07,03,05,37,14.30
2011,07,03,05,38,14.30
2011,07,03,05,39,14.30
2011,07,03,05,40,14.30
2011,07,03,05,41,14.30
2011,07,03,05,42,14.30
2011,07,03,05,43,14.30
2011,07,03,05,44,14.30
2011,07,03,05,45,14.30
2011,07,03,05,46,14.30
2011,07,03,05,47,14.30
2011,07,03,05,48,14.30
2011,07,03,05,49,14.30
2011,07,03,05,50,14.30
2011,07,03,05,51,14.30
2011,07,03,05,52,14.30
2011,07,03,05,53,14.30
2011,07,03,05,54,14.30
2011,07,03,05,55,14.30
2011,07,03,05,56,14.20
2011,07,03,05,57,14.20
2011,07,03,05,58,14.20
2011,07,03,05,59,14.20
2011,07,03,06,00,14.20
2011,07,03,06,01,14.20
2011,07,03,06,02,14.20
2011,07,03,06,03,14.20
2011,07,03,06,04,14.20
2011,07,03,06,05,14.20
2011,07,03,06,06,14.20
2011,07,03,06,07,14.20
2011,07,03,06,08,14.20
2011,07,03,06,09,14.20
2011,07,03,06,10,14.20
2011,07,03,06,11,14.20
2011,07,03,06,12,14.20
2011,07,03,06,13,14.20
2011,07,03,06,14,14.10
2011,07,03,06,15,14.10
2011,07,03,06,16,14.10
2011,07,03,06,17,14.10
2011,07,03,06,18,14.10
2011,07,03,06,19,14.20
2011,07,03,06,20,14.20
2011,07,03,06,21,14.20
2011,07,03,06,22,14.20
2011,07,03,06,23,14.20
2011,07,03,06,24,14.20
2011,07,03,06,25,14.20
2011,07,03,06,26,14.20
2011,07,03,06,27,14.20
2011,07,03,06,28,14.20
2011,07,03,06,29,14.20
2011,07,03,06,30,14.20
2011,07,03,06,31,14.20
2011,07,03,06,32,14.20
2011,07,03,06,33,14.20
2011,07,03,06,34,14.20
2011,07,03,06,35,14.10
2011,07,03,06,36,14.10
2011,07,03,06,37,14.10
2011,07,03,06,38,14.20
2011,07,03,06,39,14.20
2011,07,03,06,40,14.20
2011,07,03,06,41,14.20
2011,07,03,06,42,14.30
2011,07,03,06,43,14.30
2011,07,03,06,44,14.30
2011,07,03,06,45,14.30
2011,07,03,06,46,14.30
2011,07,03,06,47,14.20
2011,07,03,06,48,14.20
2011,07,03,06,49,14.20
2011,07,03,06,50,14.10
2011,07,03,06,51,14.10
2011,07,03,06,52,14.10
2011,07,03,06,53,14.10
2011,07,03,06,54,14.10
2011,07,03,06,55,14.10
2011,07,03,06,56,14.10
2011,07,03,06,57,14.10
2011,07,03,06,58,14.10
2011,07,03,06,59,14.10
2011,07,03,07,00,14.10
2011,07,03,07,01,14.10
2011,07,03,07,02,14.10
2011,07,03,07,03,14.10
2011,07,03,07,04,14.10
2011,07,03,07,05,14.10
2011,07,03,07,06,14.10
2011,07,03,07,07,14.00
2011,07,03,07,08,14.00
2011,07,03,07,09,14.00
2011,07,03,07,10,14.00
2011,07,03,07,11,13.90
2011,07,03,07,12,13.90
2011,07,03,07,13,13.90
2011,07,03,07,14,13.90
2011,07,03,07,15,13.80
2011,07,03,07,16,13.80
2011,07,03,07,17,13.80
2011,07,03,07,18,13.80
2011,07,03,07,19,13.80
2011,07,03,07,20,13.80
2011,07,03,07,21,13.80
2011,07,03,07,22,13.80
2011,07,03,07,23,13.80
2011,07,03,07,24,13.80
2011,07,03,07,25,13.80
2011,07,03,07,26,13.80
2011,07,03,07,27,13.80
2011,07,03,07,28,13.80
2011,07,03,07,29,13.80
2011,07,03,07,30,13.90
2011,07,03,07,31,13.90
2011,07,03,07,32,14.00
2011,07,03,07,33,14.00
2011,07,03,07,34,14.10
2011,07,03,07,35,14.10
2011,07,03,07,36,14.10
2011,07,03,07,37,14.20
2011,07,03,07,38,14.20
2011,07,03,07,39,14.30
2011,07,03,07,40,14.40
2011,07,03,07,41,14.50
2011,07,03,07,42,14.60
2011,07,03,07,43,14.70
2011,07,03,07,44,14.70
2011,07,03,07,45,14.80
2011,07,03,07,46,14.80
2011,07,03,07,47,14.90
2011,07,03,07,48,15.00
2011,07,03,07,49,15.00
2011,07,03,07,50,15.00
2011,07,03,07,51,15.00
2011,07,03,07,52,15.00
2011,07,03,07,53,15.10
2011,07,03,07,54,15.10
2011,07,03,07,55,15.10
2011,07,03,07,56,15.10
2011,07,03,07,57,15.20
2011,07,03,07,58,15.10
2011,07,03,07,59,15.00
2011,07,03,08,00,15.10
2011,07,03,08,01,15.10
2011,07,03,08,02,15.20
2011,07,03,08,03,15.20
2011,07,03,08,04,15.20
2011,07,03,08,05,15.30
2011,07,03,08,06,15.30
2011,07,03,08,07,15.40
2011,07,03,08,08,15.40
2011,07,03,08,09,15.50
2011,07,03,08,10,15.50
2011,07,03,08,11,15.50
2011,07,03,08,12,15.60
2011,07,03,08,13,15.60
2011,07,03,08,14,15.60
2011,07,03,08,15,15.50
2011,07,03,08,16,15.60
2011,07,03,08,17,15.60
2011,07,03,08,18,15.60
2011,07,03,08,19,15.60
2011,07,03,08,20,15.60
2011,07,03,08,21,15.60
2011,07,03,08,22,15.60
2011,07,03,08,23,15.60
2011,07,03,08,24,15.60
2011,07,03,08,25,15.70
2011,07,03,08,26,15.70
2011,07,03,08,27,15.80
2011,07,03,08,28,15.80
2011,07,03,08,29,15.80
2011,07,03,08,30,15.80
2011,07,03,08,31,15.80
2011,07,03,08,32,15.80
2011,07,03,08,33,15.80
2011,07,03,08,34,15.80
2011,07,03,08,35,15.80
2011,07,03,08,36,15.90
2011,07,03,08,37,15.90
2011,07,03,08,38,15.90
2011,07,03,08,39,15.80
2011,07,03,08,40,15.80
2011,07,03,08,41,15.80
2011,07,03,08,42,15.80
2011,07,03,08,43,15.80
2011,07,03,08,44,15.90
2011,07,03,08,45,15.90
2011,07,03,08,46,16.00
2011,07,03,08,47,16.00
2011,07,03,08,48,16.00
2011,07,03,08,49,16.10
2011,07,03,08,50,16.10
2011,07,03,08,51,16.10
2011,07,03,08,52,16.10
2011,07,03,08,53,16.20
2011,07,03,08,54,16.20
2011,07,03,08,55,16.20
2011,07,03,08,56,16.20
2011,07,03,08,57,16.30
2011,07,03,08,58,16.30
2011,07,03,08,59,16.30
2011,07,03,09,00,16.30
2011,07,03,09,01,16.30
2011,07,03,09,02,16.30
2011,07,03,09,03,16.30
2011,07,03,09,04,16.30
2011,07,03,09,05,16.30
2011,07,03,09,06,16.30
2011,07,03,09,07,16.30
2011,07,03,09,08,16.30
2011,07,03,09,09,16.30
2011,07,03,09,10,16.30
2011,07,03,09,11,16.40
2011,07,03,09,12,16.50
2011,07,03,09,13,16.50
2011,07,03,09,14,16.60
2011,07,03,09,15,16.70
2011,07,03,09,16,16.70
2011,07,03,09,17,16.70
2011,07,03,09,18,16.70
2011,07,03,09,19,16.80
2011,07,03,09,20,16.80
2011,07,03,09,21,16.80
2011,07,03,09,22,16.80
2011,07,03,09,23,16.90
2011,07,03,09,24,17.00
2011,07,03,09,25,17.00
2011,07,03,09,26,16.90
2011,07,03,09,27,16.90
2011,07,03,09,28,16.90
2011,07,03,09,29,16.90
2011,07,03,09,30,16.90
2011,07,03,09,31,16.90
2011,07,03,09,32,16.90
2011,07,03,09,33,16.90
2011,07,03,09,34,16.90
2011,07,03,09,35,16.90
2011,07,03,09,36,16.90
2011,07,03,09,37,16.90
2011,07,03,09,38,16.90
2011,07,03,09,39,16.90
2011,07,03,09,40,16.80
2011,07,03,09,41,16.80
2011,07,03,09,42,16.90
2011,07,03,09,43,16.90
2011,07,03,09,44,16.90
2011,07,03,09,45,17.00
2011,07,03,09,46,17.00
2011,07,03,09,47,17.10
2011,07,03,09,48,17.10
2011,07,03,09,49,17.10
2011,07,03,09,50,17.00
2011,07,03,09,51,16.90
2011,07,03,09,52,16.80
2011,07,03,09,53,16.80
2011,07,03,09,54,16.80
2011,07,03,09,55,16.70
2011,07,03,09,56,16.70
2011,07,03,09,57,16.70
2011,07,03,09,58,16.70
2011,07,03,09,59,16.80
2011,07,03,10,00,16.90
2011,07,03,10,01,16.90
2011,07,03,10,02,16.80
2011,07,03,10,03,16.80
2011,07,03,10,04,16.80
2011,07,03,10,05,16.70
2011,07,03,10,06,16.70
2011,07,03,10,07,16.70
2011,07,03,10,08,16.80
2011,07,03,10,09,16.90
2011,07,03,10,10,17.00
2011,07,03,10,11,17.00
2011,07,03,10,12,17.10
2011,07,03,10,13,17.20
2011,07,03,10,14,17.30
2011,07,03,10,15,17.40
2011,07,03,10,16,17.40
2011,07,03,10,17,17.30
2011,07,03,10,18,17.20
2011,07,03,10,19,17.20
2011,07,03,10,20,17.20
2011,07,03,10,21,17.10
2011,07,03,10,22,17.10
2011,07,03,10,23,17.20
2011,07,03,10,24,17.20
2011,07,03,10,25,17.30
2011,07,03,10,26,17.20
2011,07,03,10,27,17.20
2011,07,03,10,28,17.20
2011,07,03,10,29,17.30
2011,07,03,10,30,17.30
2011,07,03,10,31,17.30
2011,07,03,10,32,17.40
2011,07,03,10,33,17.50
2011,07,03,10,34,17.50
2011,07,03,10,35,17.60
2011,07,03,10,36,17.60
2011,07,03,10,37,17.70
2011,07,03,10,38,17.70
2011,07,03,10,39,17.70
2011,07,03,10,40,17.70
2011,07,03,10,41,17.70
2011,07,03,10,42,17.70
2011,07,03,10,43,17.70
2011,07,03,10,44,17.70
2011,07,03,10,45,17.70
2011,07,03,10,46,17.50
2011,07,03,10,47,17.40
2011,07,03,10,48,17.30
2011,07,03,10,49,17.30
2011,07,03,10,50,17.20
2011,07,03,10,51,17.20
2011,07,03,10,52,17.40
2011,07,03,10,53,17.50
2011,07,03,10,54,17.60
2011,07,03,10,55,17.60
2011,07,03,10,56,17.70
2011,07,03,10,57,17.60
2011,07,03,10,58,17.50
2011,07,03,10,59,17.40
2011,07,03,11,00,17.40
2011,07,03,11,01,17.50
2011,07,03,11,02,17.50
2011,07,03,11,03,17.50
2011,07,03,11,04,17.60
2011,07,03,11,05,17.50
2011,07,03,11,06,17.60
2011,07,03,11,07,17.70
2011,07,03,11,08,17.70
2011,07,03,11,09,17.80
2011,07,03,11,10,17.70
2011,07,03,11,11,17.70
2011,07,03,11,12,17.70
2011,07,03,11,13,17.60
2011,07,03,11,14,17.50
2011,07,03,11,15,17.50
2011,07,03,11,16,17.50
2011,07,03,11,17,17.40
2011,07,03,11,18,17.30
2011,07,03,11,19,17.20
2011,07,03,11,20,17.20
2011,07,03,11,21,17.10
2011,07,03,11,22,17.10
2011,07,03,11,23,17.10
2011,07,03,11,24,17.10
2011,07,03,11,25,17.20
2011,07,03,11,26,17.20
2011,07,03,11,27,17.20
2011,07,03,11,28,17.20
2011,07,03,11,29,17.20
2011,07,03,11,30,17.30
2011,07,03,11,31,17.30
2011,07,03,11,32,17.40
2011,07,03,11,33,17.50
2011,07,03,11,34,17.60
2011,07,03,11,35,17.70
2011,07,03,11,36,17.70
2011,07,03,11,37,17.70
2011,07,03,11,38,17.70
2011,07,03,11,39,17.70
2011,07,03,11,40,17.70
2011,07,03,11,41,17.70
2011,07,03,11,42,17.70
2011,07,03,11,43,17.60
2011,07,03,11,44,17.60
2011,07,03,11,45,17.50
2011,07,03,11,46,17.50
2011,07,03,11,47,17.50
2011,07,03,11,48,17.60
2011,07,03,11,49,17.60
2011,07,03,11,50,17.70
2011,07,03,11,51,17.70
2011,07,03,11,52,17.80
2011,07,03,11,53,17.80
2011,07,03,11,54,17.80
2011,07,03,11,55,17.80
2011,07,03,11,56,17.90
2011,07,03,11,57,17.80
2011,07,03,11,58,17.90
2011,07,03,11,59,17.90
2011,07,03,12,00,17.90
2011,07,03,12,01,18.00
2011,07,03,12,02,18.10
2011,07,03,12,03,18.20
2011,07,03,12,04,18.20
2011,07,03,12,05,18.20
2011,07,03,12,06,18.20
2011,07,03,12,07,18.20
2011,07,03,12,08,18.10
2011,07,03,12,09,18.00
2011,07,03,12,10,18.00
2011,07,03,12,11,18.00
2011,07,03,12,12,17.90
2011,07,03,12,13,17.80
2011,07,03,12,14,17.80
2011,07,03,12,15,17.90
2011,07,03,12,16,18.00
2011,07,03,12,17,18.20
2011,07,03,12,18,18.30
2011,07,03,12,19,18.30
2011,07,03,12,20,18.40
2011,07,03,12,21,18.40
2011,07,03,12,22,18.30
2011,07,03,12,23,18.30
2011,07,03,12,24,18.30
2011,07,03,12,25,18.20
2011,07,03,12,26,18.10
2011,07,03,12,27,18.10
2011,07,03,12,28,18.10
2011,07,03,12,29,18.20
2011,07,03,12,30,18.30
2011,07,03,12,31,18.20
2011,07,03,12,32,18.20
2011,07,03,12,33,18.30
2011,07,03,12,34,18.30
2011,07,03,12,35,18.30
2011,07,03,12,36,18.30
2011,07,03,12,37,18.20
2011,07,03,12,38,18.20
2011,07,03,12,39,18.20
2011,07,03,12,40,18.30
2011,07,03,12,41,18.40
2011,07,03,12,42,18.50
2011,07,03,12,43,18.60
2011,07,03,12,44,18.60
2011,07,03,12,45,18.80
2011,07,03,12,46,18.80
2011,07,03,12,47,18.70
2011,07,03,12,48,18.70
2011,07,03,12,49,18.70
2011,07,03,12,50,18.80
2011,07,03,12,51,18.70
2011,07,03,12,52,18.70
2011,07,03,12,53,18.60
2011,07,03,12,54,18.60
2011,07,03,12,55,18.70
2011,07,03,12,56,18.80
2011,07,03,12,57,18.90
2011,07,03,12,58,18.90
2011,07,03,12,59,19.00
2011,07,03,13,00,19.00
2011,07,03,13,01,19.00
2011,07,03,13,02,19.00
2011,07,03,13,03,19.00
2011,07,03,13,04,18.90
2011,07,03,13,05,19.00
2011,07,03,13,06,19.10
2011,07,03,13,07,19.20
2011,07,03,13,08,19.10
2011,07,03,13,09,19.10
2011,07,03,13,10,19.00
2011,07,03,13,11,19.00
2011,07,03,13,12,19.10
2011,07,03,13,13,19.20
2011,07,03,13,14,19.30
2011,07,03,13,15,19.30
2011,07,03,13,16,19.30
2011,07,03,13,17,19.30
2011,07,03,13,18,19.30
2011,07,03,13,19,19.30
2011,07,03,13,20,19.30
2011,07,03,13,21,19.20
2011,07,03,13,22,19.20
2011,07,03,13,23,19.30
2011,07,03,13,24,19.30
2011,07,03,13,25,19.40
2011,07,03,13,26,19.40
2011,07,03,13,27,19.30
2011,07,03,13,28,19.20
2011,07,03,13,29,19.30
2011,07,03,13,30,19.40
2011,07,03,13,31,19.50
2011,07,03,13,32,19.60
2011,07,03,13,33,19.70
2011,07,03,13,34,19.70
2011,07,03,13,35,19.70
2011,07,03,13,36,19.70
2011,07,03,13,37,19.70
2011,07,03,13,38,19.70
2011,07,03,13,39,19.50
2011,07,03,13,40,19.30
2011,07,03,13,41,19.20
2011,07,03,13,42,19.20
2011,07,03,13,43,19.30
2011,07,03,13,44,19.30
2011,07,03,13,45,19.40
2011,07,03,13,46,19.40
2011,07,03,13,47,19.30
2011,07,03,13,48,19.40
2011,07,03,13,49,19.40
2011,07,03,13,50,19.30
2011,07,03,13,51,19.40
2011,07,03,13,52,19.40
2011,07,03,13,53,19.40
2011,07,03,13,54,19.50
2011,07,03,13,55,19.70
2011,07,03,13,56,19.80
2011,07,03,13,57,19.90
2011,07,03,13,58,19.90
2011,07,03,13,59,19.90
2011,07,03,14,00,19.90
2011,07,03,14,01,19.90
2011,07,03,14,02,19.80
2011,07,03,14,03,19.70
2011,07,03,14,04,19.70
2011,07,03,14,05,19.70
2011,07,03,14,06,19.60
2011,07,03,14,07,19.50
2011,07,03,14,08,19.40
2011,07,03,14,09,19.40
2011,07,03,14,10,19.40
2011,07,03,14,11,19.50
2011,07,03,14,12,19.60
2011,07,03,14,13,19.60
2011,07,03,14,14,19.70
2011,07,03,14,15,19.70
2011,07,03,14,16,19.80
2011,07,03,14,17,19.90
2011,07,03,14,18,19.90
2011,07,03,14,19,20.00
2011,07,03,14,20,20.00
2011,07,03,14,21,20.00
2011,07,03,14,22,20.20
2011,07,03,14,23,20.30
2011,07,03,14,24,20.30
2011,07,03,14,25,20.20
2011,07,03,14,26,20.10
2011,07,03,14,27,20.00
2011,07,03,14,28,20.00
2011,07,03,14,29,19.90
2011,07,03,14,30,19.80
2011,07,03,14,31,19.70
2011,07,03,14,32,19.60
2011,07,03,14,33,19.60
2011,07,03,14,34,19.50
2011,07,03,14,35,19.50
2011,07,03,14,36,19.60
2011,07,03,14,37,19.70
2011,07,03,14,38,19.80
2011,07,03,14,39,19.80
2011,07,03,14,40,19.80
2011,07,03,14,41,19.90
2011,07,03,14,42,19.80
2011,07,03,14,43,19.80
2011,07,03,14,44,19.80
2011,07,03,14,45,19.80
2011,07,03,14,46,19.90
2011,07,03,14,47,19.90
2011,07,03,14,48,20.10
2011,07,03,14,49,20.20
2011,07,03,14,50,20.30
2011,07,03,14,51,20.40
2011,07,03,14,52,20.60
2011,07,03,14,53,20.70
2011,07,03,14,54,20.70
2011,07,03,14,55,20.80
2011,07,03,14,56,20.70
2011,07,03,14,57,20.70
2011,07,03,14,58,20.70
2011,07,03,14,59,20.70
2011,07,03,15,00,20.70
2011,07,03,15,01,20.70
2011,07,03,15,02,20.70
2011,07,03,15,03,20.80
2011,07,03,15,04,20.80
2011,07,03,15,05,20.80
2011,07,03,15,06,20.80
2011,07,03,15,07,20.80
2011,07,03,15,08,20.80
2011,07,03,15,09,20.80
2011,07,03,15,10,20.90
2011,07,03,15,11,20.90
2011,07,03,15,12,21.00
2011,07,03,15,13,21.10
2011,07,03,15,14,21.20
2011,07,03,15,15,21.30
2011,07,03,15,16,21.50
2011,07,03,15,17,21.70
2011,07,03,15,18,21.70
2011,07,03,15,19,21.60
2011,07,03,15,20,21.40
2011,07,03,15,21,21.20
2011,07,03,15,22,21.10
2011,07,03,15,23,21.00
2011,07,03,15,24,20.90
2011,07,03,15,25,20.80
2011,07,03,15,26,20.80
2011,07,03,15,27,20.80
2011,07,03,15,28,20.80
2011,07,03,15,29,20.60
2011,07,03,15,30,20.50
2011,07,03,15,31,20.40
2011,07,03,15,32,20.30
2011,07,03,15,33,20.30
2011,07,03,15,34,20.30
2011,07,03,15,35,20.20
2011,07,03,15,36,20.20
2011,07,03,15,37,20.20
2011,07,03,15,38,20.30
2011,07,03,15,39,20.30
2011,07,03,15,40,20.30
2011,07,03,15,41,20.30
2011,07,03,15,42,20.40
2011,07,03,15,43,20.40
2011,07,03,15,44,20.40
2011,07,03,15,45,20.50
2011,07,03,15,46,20.50
2011,07,03,15,47,20.60
2011,07,03,15,48,20.60
2011,07,03,15,49,20.60
2011,07,03,15,50,20.60
2011,07,03,15,51,20.70
2011,07,03,15,52,20.70
2011,07,03,15,53,20.70
2011,07,03,15,54,20.70
2011,07,03,15,55,20.80
2011,07,03,15,56,20.70
2011,07,03,15,57,20.70
2011,07,03,15,58,20.70
2011,07,03,15,59,20.80
2011,07,03,16,00,20.80
2011,07,03,16,01,20.90
2011,07,03,16,02,20.90
2011,07,03,16,03,20.80
2011,07,03,16,04,20.70
2011,07,03,16,05,20.70
2011,07,03,16,06,20.70
2011,07,03,16,07,20.80
2011,07,03,16,08,20.90
2011,07,03,16,09,21.00
2011,07,03,16,10,21.20
2011,07,03,16,11,21.40
2011,07,03,16,12,21.40
2011,07,03,16,13,21.40
2011,07,03,16,14,21.40
2011,07,03,16,15,21.30
2011,07,03,16,16,21.40
2011,07,03,16,17,21.40
2011,07,03,16,18,21.30
2011,07,03,16,19,21.10
2011,07,03,16,20,20.90
2011,07,03,16,21,20.80
2011,07,03,16,22,20.70
2011,07,03,16,23,20.60
2011,07,03,16,24,20.60
2011,07,03,16,25,20.70
2011,07,03,16,26,20.70
2011,07,03,16,27,20.70
2011,07,03,16,28,20.70
2011,07,03,16,29,20.80
2011,07,03,16,30,20.70
2011,07,03,16,31,20.70
2011,07,03,16,32,20.70
2011,07,03,16,33,20.70
2011,07,03,16,34,20.70
2011,07,03,16,35,20.60
2011,07,03,16,36,20.40
2011,07,03,16,37,20.30
2011,07,03,16,38,20.30
2011,07,03,16,39,20.30
2011,07,03,16,40,20.40
2011,07,03,16,41,20.50
2011,07,03,16,42,20.60
2011,07,03,16,43,20.70
2011,07,03,16,44,20.60
2011,07,03,16,45,20.60
2011,07,03,16,46,20.50
2011,07,03,16,47,20.50
2011,07,03,16,48,20.50
2011,07,03,16,49,20.60
2011,07,03,16,50,20.40
2011,07,03,16,51,20.10
2011,07,03,16,52,20.00
2011,07,03,16,53,20.00
2011,07,03,16,54,20.00
2011,07,03,16,55,20.00
2011,07,03,16,56,20.10
2011,07,03,16,57,20.20
2011,07,03,16,58,20.30
2011,07,03,16,59,20.30
2011,07,03,17,00,20.40
2011,07,03,17,01,20.30
2011,07,03,17,02,20.20
2011,07,03,17,03,20.30
2011,07,03,17,04,20.30
2011,07,03,17,05,20.40
2011,07,03,17,06,20.40
2011,07,03,17,07,20.60
2011,07,03,17,08,20.60
2011,07,03,17,09,20.60
2011,07,03,17,10,20.50
2011,07,03,17,11,20.50
2011,07,03,17,12,20.50
2011,07,03,17,13,20.40
2011,07,03,17,14,20.40
2011,07,03,17,15,20.30
2011,07,03,17,16,20.40
2011,07,03,17,17,20.40
2011,07,03,17,18,20.40
2011,07,03,17,19,20.40
2011,07,03,17,20,20.40
2011,07,03,17,21,20.50
2011,07,03,17,22,20.50
2011,07,03,17,23,20.40
2011,07,03,17,24,20.30